Regional Weather Roundup
Issued by NWS

Home | Current Version | Previous Version | Graphics & Text | Print | Product List | Glossary On
Versions: 1 2 3 4 5 6 7 8 9 10 11 12 13 14 15 16 17 18 19 20 21 22 23 24 25 26 27 28 29 30 31 32 33 34 35 36 37 38 39 40 41 42 43 44 45 46 47 48 49 50
000
ASUS44 KMEG 192300
RWRTN
TENNESSEE HOURLY STATE WEATHER ROUNDUP
NATIONAL WEATHER SERVICE MEMPHIS TN
500 PM CST MON FEB 19 2018

TNZ002-004-019-021-049-052-054-088>092-200000-
WEST TENNESSEE

CITY           SKY/WX    TMP DP  RH WIND       PRES   REMARKS
MEMPHIS INTL   MOCLDY    75  55  49 S12       30.02S
NWS MEMPHIS      N/A     75 N/A N/A MISG        N/A
JACKSON        FAIR      73  58  59 S13       30.06R
DYERSBURG      FAIR      74  57  55 S8G20     30.03R
$$

TNZ008-025-027-028-033-062-065-066-200000-
NORTH MIDDLE TENNESSEE

CITY           SKY/WX    TMP DP  RH WIND       PRES   REMARKS
NASHVILLE      MOCLDY    73  55  53 S13       30.13R
CLARKSVILLE    FAIR      71  54  54 S14       30.07R
SMYRNA         MOCLDY    72  56  57 S6        30.14R
CROSSVILLE     MOCLDY    61  55  81 S7        30.24R
$$

TNZ061-075-076-078-094-096-097-200000-
SOUTH MIDDLE TENNESSEE

CITY           SKY/WX    TMP DP  RH WIND       PRES   REMARKS
WINCHESTER     MOCLDY    73  52  46 S12       30.17S
$$

TNZ017-018-042-046-047-200000-
NORTHEAST TENNESSEE

CITY           SKY/WX    TMP DP  RH WIND       PRES   REMARKS
TRI CITIES     MOCLDY    65  55  70 SW6       30.24S
$$

TNZ012-013-036-069-073-074-200000-
CENTRAL EAST TENNESSEE

CITY           SKY/WX    TMP DP  RH WIND       PRES   REMARKS
KNOXVILLE      CLOUDY    69  53  56 SW13G22   30.21R
OAK RIDGE      CLOUDY    69  60  73 W5        30.22R
$$

TNZ083-085-099-200000-
SOUTHEAST TENNESSEE

CITY           SKY/WX    TMP DP  RH WIND       PRES   REMARKS
CHATTANOOGA    MOCLDY    67  58  72 S8        30.22R
$$

SKY/WX REPORTED AS FAIR MEANS FEW OR NO CLOUDS BELOW
12 THOUSAND FEET.





USA.gov is the U.S. government's official web portal to all federal, state and local government web resources and services.